#timestamp,LO_Frequency,Hit,StdDev 
1676520015.9,286046999.6,N
1676520035.7,286046996.8,Y
1676520055.6,286046997.5,P
1676520075.4,286046994.9,P
1676520095.2,286046997.3,N
1676520115.1,286046993.4,Y
1676520116.0,286046993.4,P
1676520135.8,286046995.6,N
1676520155.7,286046997.4,N
1676520175.5,286046997.1,N
1676520195.4,286046997.0,N
1676520215.2,286046998.8,N
1676520235.0,286047001.2,N
1676520235.9,286047001.2,N
1676520255.8,286046996.6,N
1676520275.6,286046996.7,N
1676520295.5,286046999.3,N
1676520315.3,286047000.8,N
1676520335.1,286047001.9,N
1676520355.9,286047000.2,N
1676520375.7,286047001.5,N
1676520395.6,286046998.9,N
1676520415.4,286046998.4,N
1676520435.2,286046997.1,N
1676520455.1,286046996.2,N
1676520456.0,286046996.2,N
1676520475.8,286046997.8,N
1676520495.7,286046997.5,N
1676520515.5,286046997.8,N
1676520535.3,286046998.1,N
1676520555.2,286047000.7,N
1676520575.0,286047000.1,N
1676520575.9,286047000.1,N
1676520595.8,286047001.2,N
1676520615.6,286047002.4,N
1676520635.4,286047001.8,N
1676520655.3,286047001.5,N
1676520675.1,286047003.9,N
1676520695.8,286047002.5,N
1676520715.7,286047000.7,N
1676520735.5,286047002.4,N
1676520755.4,286047001.5,N
1676520775.2,286047002.9,N
1676520795.0,286047000.2,N
1676520795.9,286047000.2,N
1676520815.8,286047002.7,N
1676520835.6,286047004.0,N
1676520855.5,286047005.3,N
1676520875.3,286047003.3,N
1676520895.1,286047007.0,N
1676520915.9,286047005.8,N
1676520935.7,286047003.9,N
1676520955.6,286047003.6,N
1676520975.4,286047001.8,N
1676520995.2,286047001.5,N
1676521015.1,286046998.2,N
1676521016.0,286046998.2,N
1676521035.8,286047000.5,N
1676521055.7,286046998.2,N
1676521075.5,286046998.2,N
1676521095.3,286047000.7,N
1676521115.2,286047000.1,N
1676521135.0,286047000.0,N
1676521135.9,286047000.0,N
1676521155.7,286046998.8,N
1676521175.6,286046998.4,N
1676521195.4,286047000.7,N
1676521215.3,286047000.9,N
1676521235.1,286047000.0,N
1676521255.8,286047002.2,N
1676521275.7,286047000.0,N
1676521295.5,286047001.7,N
1676521315.4,286047001.8,N
1676521335.2,286047001.7,N
1676521355.0,286047000.4,N
1676521355.9,286047000.4,N
1676521375.8,286046998.1,N
1676521395.6,286046998.8,N
1676521415.4,286046998.4,N
1676521435.3,286046998.8,N
1676521455.1,286046999.8,N
1676521475.9,286047000.8,N
1676521495.7,286047000.7,N
1676521515.6,286046998.6,N
1676521535.4,286047000.7,N
1676521555.2,286047002.5,N
1676521575.1,286047001.5,N
1676521576.0,286047001.5,N
1676521595.8,286047004.2,Y
1676521615.7,286047001.4,P
1676521635.5,286047001.4,N
1676521655.3,286047001.6,N
1676521675.2,286047000.7,N
1676521695.9,286047000.5,N
1676521715.7,286046998.5,N
1676521735.6,286047002.8,N
1676521755.4,286047000.0,N
1676521775.3,286046998.4,N
1676521795.1,286047002.1,N
1676521796.0,286047002.1,N
1676521815.8,286047001.9,N
1676521835.7,286047002.3,N
1676521855.5,286047000.2,N
1676521875.3,286047001.3,N
1676521895.2,286047003.9,Y
1676521915.0,286047003.9,P
1676521915.9,286047003.9,N
1676521935.8,286047003.7,N
1676521955.6,286047002.5,N
1676521975.4,286046999.3,N
1676521995.3,286047001.2,N
1676522015.1,286046999.0,N
1676522035.8,286046999.1,N
1676522055.7,286046999.9,N
1676522075.5,286047001.1,N
1676522095.4,286046999.3,N
1676522115.2,286046998.8,N
1676522135.0,286046996.7,N
1676522135.9,286046996.7,N
1676522155.8,286046993.3,N
1676522175.6,286046995.5,N
1676522195.4,286046999.1,N
1676522215.3,286046998.8,N
1676522235.1,286046998.7,N
1676522255.9,286046996.8,N
1676522275.7,286046996.0,N
1676522295.5,286046994.1,N
1676522315.4,286046993.4,N
1676522335.2,286046996.9,N
1676522355.0,286047000.3,N
1676522355.9,286047000.3,N
1676522375.8,286047001.2,N
1676522395.6,286047001.0,N
1676522415.5,286047000.5,N
1676522435.3,286046999.4,N
1676522455.1,286047000.3,N
1676522475.9,286046997.8,N
1676522495.7,286046997.4,N
1676522515.5,286046996.6,N
1676522535.4,286046998.3,N
1676522555.2,286046999.9,N
1676522575.1,286047000.4,N
1676522576.0,286047000.4,N
1676522595.8,286047000.1,N
1676522615.6,286047000.3,N
1676522635.5,286046998.6,N
1676522655.3,286047000.9,N
1676522675.1,286046999.8,N
1676522695.9,286047002.0,N
1676522715.7,286046999.8,N
1676522735.6,286047000.5,N
1676522755.4,286046998.8,N
1676522775.2,286047001.2,N
1676522795.1,286046999.5,N
1676522796.0,286046999.5,N
1676522815.8,286046997.5,N
1676522835.7,286046997.6,N
1676522855.5,286046996.9,N
1676522875.3,286046999.1,N
1676522895.2,286046999.1,N
1676522915.0,286046998.9,N
1676522915.9,286046998.9,N
1676522935.8,286046999.1,N
1676522955.6,286047001.0,N
1676522975.4,286047000.2,N
1676522995.3,286047002.7,N
1676523015.1,286047000.9,N
1676523035.8,286047000.0,N
1676523055.7,286047001.2,N
1676523075.5,286046998.6,N
1676523095.4,286047000.8,N
1676523115.2,286047000.1,N
1676523135.0,286046999.0,N
1676523135.9,286046999.0,N
1676523155.8,286046998.8,N
1676523175.6,286046998.8,N
1676523195.4,286046996.6,N
1676523215.3,286047000.4,N
1676523235.1,286047002.2,N
1676523255.9,286047001.8,N
1676523275.7,286047004.4,N
1676523295.5,286047002.8,N
1676523315.4,286047000.3,N
1676523335.2,286046999.0,N
1676523355.0,286046998.6,N
1676523356.0,286046998.6,N
1676523375.8,286046999.2,N
1676523395.6,286047001.0,N
1676523415.5,286047001.0,N
1676523435.3,286046997.6,N
1676523455.1,286046997.8,N
1676523475.9,286046996.8,N
1676523495.7,286046999.3,N
1676523515.6,286046999.9,N
1676523535.4,286046998.4,N
1676523555.2,286047000.9,N
1676523575.1,286047002.8,N
1676523576.0,286047002.8,N
1676523595.8,286047001.1,N
